Regional Weather Roundup
Issued by NWS

Home | Current Version | Previous Version | Text Only | Print | Product List | Glossary On
Versions: 1 2 3 4 5 6 7 8 9 10 11 12 13 14 15 16 17 18 19 20 21 22 23 24 25 26 27 28 29 30 31 32 33 34 35 36 37 38 39 40 41 42 43 44 45 46 47 48 49 50
000
ASUS43 KTOP 181959
RWRKS

WEATHER ROUNDUP FOR KANSAS
NATIONAL WEATHER SERVICE GOODLAND KS
300 PM CDT MON SEP 18 2017

NOTE:  "FAIR" INDICATES FEW OR NO CLOUDS BELOW 12,000 FEET WITH NO
SIGNIFICANT WEATHER AND/OR OBSTRUCTIONS TO VISIBILITY.

KSZ001>006-013>018-027>032-041>047-182100-
NORTHWEST KANSAS

CITY           SKY/WX    TMP DP  RH WIND       PRES   REMARKS
GOODLAND       SUNNY     82  47  29 NW6       29.93F
HAYS           PTSUNNY   86  61  42 SW20G28   29.87F
HILL CITY      PTSUNNY   83  59  44 W5        29.89F
RUSSELL        PTSUNNY   86  59  39 SW13      29.87F
$$

KSZ061>065-074>080-084>089-182100-
SOUTHWEST KANSAS

CITY           SKY/WX    TMP DP  RH WIND       PRES   REMARKS
DODGE CITY     MOSUNNY   85  60  42 S22       29.93F
ELKHART          N/A     82  60  47 SW7         N/A
GARDEN CITY    SUNNY     84  56  38 SW13G24   29.92F
GREAT BEND     PTSUNNY   88  61  40 S15G22    29.89F
LIBERAL        MOSUNNY   81  63  54 SW13G24   29.96F
$$

KSZ066>073-081>083-090>101-182100-
SOUTHEAST KANSAS

CITY           SKY/WX    TMP DP  RH WIND       PRES   REMARKS
CHANUTE        PTSUNNY   78  69  73 S10       29.98F
COFFEYVILLE    SUNNY     80  69  69 S7        29.96F
HUTCHINSON     MOSUNNY   87  62  43 SW12G18   29.90F
NEWTON         SUNNY     83  64  52 SW14G23   29.93F
WICHITA INTL   MOSUNNY   86  61  42 SW15G23   29.92F
WICHITA JABRA  MOSUNNY   84  64  50 S8        29.93F
WINFIELD       MOSUNNY   84  64  50 S9        29.96F
$$

KSZ007>012-019>026-033>040-048>060-102>105-182100-
NORTHEAST KANSAS

CITY           SKY/WX    TMP DP  RH WIND       PRES   REMARKS
CONCORDIA      PTSUNNY   77  69  76 SE7       29.91F
EMPORIA        MOSUNNY   78  68  71 S15       29.93F
LAWRENCE       CLOUDY    73  69  87 SE7       29.95F
MANHATTAN      MOSUNNY   80  68  66 VRB7      29.91F
OLATHE IND     CLOUDY    71  68  90 S8        29.97F
OLATHE EXE     CLOUDY    69  69 100 S7        29.96F
SALINA         PTSUNNY   88  59  37 VRB3      29.89F
TOPEKA BILLARD CLOUDY    77  70  79 S9        29.94F
TOPEKA FORBES  CLOUDY    77  70  79 S10       29.95F
$$




USA.gov is the U.S. government's official web portal to all federal, state and local government web resources and services.